TimeEDT,TemperatureF,Dew PointF,Humidity,Sea Level PressureIn,VisibilityMPH,Wind Direction,Wind SpeedMPH,Gust SpeedMPH,PrecipitationIn,Events,Conditions,WindDirDegrees,DateUTC
12:53 AM,37.9,23.0,55,30.29,10.0,NNW,11.5,16.1,N/A,,Partly Cloudy,340,2013-03-27 04:53:00
1:53 AM,35.1,23.0,61,30.29,10.0,NW,5.8,-,N/A,,Partly Cloudy,320,2013-03-27 05:53:00
2:53 AM,33.1,21.9,64,30.29,10.0,WNW,3.5,-,N/A,,Clear,290,2013-03-27 06:53:00
3:53 AM,32.0,21.9,66,30.28,10.0,WNW,5.8,-,N/A,,Clear,300,2013-03-27 07:53:00
4:53 AM,30.0,23.0,75,30.29,10.0,West,5.8,-,N/A,,Clear,280,2013-03-27 08:53:00
5:53 AM,30.0,23.0,75,30.29,10.0,WNW,5.8,-,N/A,,Clear,300,2013-03-27 09:53:00
6:53 AM,28.0,23.0,81,30.31,10.0,West,5.8,-,N/A,,Clear,270,2013-03-27 10:53:00
7:53 AM,28.0,25.0,88,30.33,10.0,West,4.6,-,N/A,,Clear,280,2013-03-27 11:53:00
8:53 AM,35.1,26.1,70,30.33,10.0,NW,5.8,-,N/A,,Clear,320,2013-03-27 12:53:00
9:53 AM,39.9,27.0,60,30.36,10.0,NNW,6.9,-,N/A,,Clear,340,2013-03-27 13:53:00
10:53 AM,45.0,24.1,44,30.35,10.0,Variable,5.8,-,N/A,,Clear,0,2013-03-27 14:53:00
11:53 AM,46.9,23.0,39,30.34,10.0,Variable,4.6,-,N/A,,Clear,0,2013-03-27 15:53:00
12:53 PM,50.0,23.0,35,30.32,10.0,NW,8.1,-,N/A,,Clear,310,2013-03-27 16:53:00
1:53 PM,53.1,23.0,31,30.31,10.0,NW,8.1,-,N/A,,Clear,310,2013-03-27 17:53:00
2:53 PM,55.9,21.0,26,30.28,10.0,NW,12.7,-,N/A,,Clear,310,2013-03-27 18:53:00
3:53 PM,59.0,21.9,24,30.26,10.0,NNW,11.5,-,N/A,,Clear,330,2013-03-27 19:53:00
4:53 PM,57.9,19.9,23,30.24,10.0,WNW,11.5,16.1,N/A,,Clear,300,2013-03-27 20:53:00
5:53 PM,59.0,21.0,23,30.24,10.0,WNW,11.5,-,N/A,,Clear,300,2013-03-27 21:53:00
6:53 PM,57.9,-9999,N/A,30.24,10.0,WNW,11.5,-,N/A,,Clear,300,2013-03-27 22:53:00
7:53 PM,57.2,-9999,N/A,30.24,10.0,WNW,9.2,-,N/A,,Clear,290,2013-03-27 23:53:00
8:53 PM,46.9,26.1,44,30.26,10.0,West,4.6,-,N/A,,Clear,280,2013-03-28 00:53:00
9:53 PM,43.0,27.0,53,30.27,10.0,West,3.5,-,N/A,,Clear,280,2013-03-28 01:53:00
10:53 PM,39.9,30.0,68,30.28,10.0,West,4.6,-,N/A,,Clear,280,2013-03-28 02:53:00
11:53 PM,39.0,30.9,73,30.28,10.0,West,6.9,-,N/A,,Clear,270,2013-03-28 03:53:00